Location: Dodge City Community College Clyde Tombaugh Astronomy Center
(37.7756°N, 100.0412°W)
Time: 06:31:12
(UTC+00:00)

N. Korean satellite - Pass Details

Date: 13 December 2022
Orbit: 408 x 444 km, 97.3° (Epoch: 27 January)

Event Time Altitude Azimuth Distance (km) Brightness Sun altitude
Rises 11:31:30 0° 20° (NNE) 2,463 10.3 -26.0°
Reaches altitude 10° 11:33:40 10° 30° (NNE) 1,575 9.4 -25.5°
Maximum altitude 11:36:48 35° 98° (E) 728 7.9 -24.9°
Drops below altitude 10° 11:39:50 10° 166° (SSE) 1,532 9.4 -24.3°
Sets 11:41:55 0° 175° (S) 2,383 10.3 -23.9°
